Tracking 26922 objects as of 1-Feb-2023
HD Live streaming from Space Station
objects crossing your sky now

COSMOS 886 DEB *

Track COSMOS 886 DEB * now!
10-day predictions


NORAD ID: 9954
Int'l Code: 1976-126AU
Perigee: 567.8 km
Apogee: 1,961.3 km
Inclination: 65.7 °
Period: 110.7 minutes
Semi major axis: 7635 km
RCS: 0.0138 m2 (small)
Launch date: December 27, 1976
Source: Commonwealth of Independent States (former USSR) (CIS)
Launch site: TYURATAM MISSILE AND SPACE COMPLEX (TTMTR)

Note: This is SATELLITE DEBRIS
Your satellite tracking list
Your tracking list is empty




NASA's NSSDC Master Catalog

Two Line Element Set (TLE):
1 09954U 76126AU  23031.14410695  .00000038  00000-0  51664-4 0  9995
2 09954  65.7021 355.7578 0912560 196.5347 160.4005 13.01196269466468
Source of the keplerian elements: AFSPC